Hourly Weather Bolshie Shestaki

Today, 17 June, Thursday

Time Temperature Precipitation Wind Pressure Humidity
00:00 +13°C° 0 mm 2 mps 752 mmHg 84%
01:00 +12°C° 0 mm 2 mps 753 mmHg 84%
02:00 +12°C° 0 mm 2 mps 753 mmHg 85%
03:00 +12°C° 0 mm 2 mps 753 mmHg 85%
04:00 +12°C° 0 mm 2 mps 753 mmHg 85%
05:00 +12°C° 0 mm 2 mps 753 mmHg 85%
06:00 +14°C° 0 mm 2 mps 753 mmHg 79%
07:00 +16°C° 0 mm 2 mps 753 mmHg 73%
08:00 +18°C° 0 mm 2 mps 754 mmHg 66%
09:00 +20°C° 0 mm 2 mps 754 mmHg 62%
10:00 +21°C° 0 mm 2 mps 754 mmHg 58%
11:00 +23°C° 0 mm 2 mps 754 mmHg 54%
12:00 +24°C° 0 mm 2 mps 754 mmHg 53%
13:00 +25°C° 0 mm 2 mps 754 mmHg 51%
14:00 +26°C° 0 mm 2 mps 754 mmHg 49%
15:00 +26°C° 0 mm 2 mps 754 mmHg 50%
16:00 +26°C° 0 mm 2 mps 754 mmHg 52%
17:00 +26°C° 0 mm 2 mps 754 mmHg 53%
18:00 +24°C° 0 mm 2 mps 754 mmHg 60%
19:00 +23°C° 0 mm 2 mps 754 mmHg 67%
20:00 +21°C° 0 mm 1 mps 754 mmHg 74%
21:00 +19°C° 0 mm 2 mps 754 mmHg 78%
22:00 +18°C° 0 mm 2 mps 754 mmHg 81%
23:00 +17°C° 0 mm 2 mps 754 mmHg 85%

Tomorrow, 18 June, Friday

Time Temperature Precipitation Wind Pressure Humidity
00:00 +16°C° 0 mm 2 mps 754 mmHg 87%
01:00 +16°C° 0 mm 2 mps 754 mmHg 89%
02:00 +15°C° 0 mm 2 mps 754 mmHg 90%
03:00 +15°C° 0 mm 2 mps 754 mmHg 90%
04:00 +15°C° 0 mm 2 mps 754 mmHg 89%
05:00 +15°C° 0 mm 2 mps 754 mmHg 89%
06:00 +17°C° 0 mm 2 mps 754 mmHg 83%
07:00 +19°C° 0 mm 3 mps 754 mmHg 77%
08:00 +21°C° 0 mm 3 mps 754 mmHg 71%
09:00 +22°C° 0 mm 3 mps 754 mmHg 66%
10:00 +24°C° 0 mm 3 mps 754 mmHg 62%
11:00 +26°C° 0 mm 4 mps 754 mmHg 57%
12:00 +26°C° 0 mm 3 mps 754 mmHg 55%
13:00 +27°C° 0 mm 3 mps 754 mmHg 53%
14:00 +27°C° 0 mm 3 mps 754 mmHg 51%
15:00 +27°C° 0 mm 3 mps 753 mmHg 54%
16:00 +27°C° 0 mm 3 mps 753 mmHg 57%
17:00 +27°C° 0 mm 3 mps 753 mmHg 60%
18:00 +25°C° 0 mm 3 mps 753 mmHg 66%
19:00 +22°C° 0 mm 3 mps 753 mmHg 73%
20:00 +21°C° 0 mm 2 mps 753 mmHg 79%
21:00 +20°C° 0 mm 2 mps 753 mmHg 83%
22:00 +19°C° 0 mm 2 mps 753 mmHg 86%
23:00 +18°C° 0 mm 2 mps 753 mmHg 90%

Day after tomorrow, 19 June, Saturday

Time Temperature Precipitation Wind Pressure Humidity
00:00 +18°C° 0 mm 2 mps 753 mmHg 91%
01:00 +17°C° 0 mm 2 mps 753 mmHg 92%
02:00 +17°C° 0 mm 2 mps 753 mmHg 93%
03:00 +17°C° 0 mm 2 mps 753 mmHg 93%
04:00 +17°C° 0 mm 2 mps 753 mmHg 94%
05:00 +17°C° 0 mm 2 mps 753 mmHg 94%
06:00 +19°C° 0 mm 3 mps 753 mmHg 89%
07:00 +21°C° 0 mm 3 mps 753 mmHg 84%
08:00 +23°C° 0 mm 4 mps 753 mmHg 79%
09:00 +25°C° 0 mm 4 mps 753 mmHg 74%
10:00 +26°C° 0 mm 4 mps 753 mmHg 70%
11:00 +27°C° 0 mm 4 mps 753 mmHg 65%
12:00 +27°C° 0 mm 3 mps 752 mmHg 66%
13:00 +27°C° 0 mm 3 mps 752 mmHg 67%
14:00 +27°C° 0 mm 3 mps 752 mmHg 68%
15:00 +27°C° 0 mm 3 mps 752 mmHg 67%
16:00 +28°C° 0 mm 3 mps 752 mmHg 67%
17:00 +28°C° 0 mm 3 mps 751 mmHg 67%
18:00 +26°C° 0.1 mm 3 mps 751 mmHg 73%
19:00 +25°C° 0.1 mm 3 mps 751 mmHg 79%
20:00 +24°C° 0.1 mm 3 mps 751 mmHg 85%
21:00 +22°C° 0 mm 3 mps 751 mmHg 86%
22:00 +20°C° 0 mm 3 mps 751 mmHg 88%
23:00 +19°C° 0 mm 3 mps 751 mmHg 90%

20 June, Sunday

Time Temperature Precipitation Wind Pressure Humidity
00:00 +19°C° 0 mm 2 mps 751 mmHg 90%
01:00 +18°C° 0 mm 2 mps 751 mmHg 91%
02:00 +18°C° 0 mm 2 mps 751 mmHg 91%
03:00 +18°C° 0 mm 2 mps 751 mmHg 92%
04:00 +18°C° 0 mm 2 mps 751 mmHg 93%
05:00 +18°C° 0 mm 2 mps 751 mmHg 93%
06:00 +19°C° 0 mm 3 mps 751 mmHg 88%
07:00 +21°C° 0 mm 3 mps 751 mmHg 82%
08:00 +24°C° 0 mm 3 mps 751 mmHg 77%
09:00 +25°C° 0.1 mm 3 mps 751 mmHg 73%
10:00 +26°C° 0.1 mm 4 mps 751 mmHg 70%
11:00 +27°C° 0.1 mm 4 mps 751 mmHg 67%
12:00 +27°C° 0.2 mm 4 mps 750 mmHg 65%
13:00 +27°C° 0.2 mm 4 mps 750 mmHg 64%
14:00 +27°C° 0.2 mm 4 mps 750 mmHg 63%
15:00 +27°C° 0 mm 4 mps 750 mmHg 64%
16:00 +27°C° 0 mm 4 mps 749 mmHg 65%
17:00 +27°C° 0 mm 4 mps 749 mmHg 66%
18:00 +26°C° 0.1 mm 3 mps 749 mmHg 71%
19:00 +25°C° 0.1 mm 3 mps 749 mmHg 77%
20:00 +24°C° 0.1 mm 2 mps 749 mmHg 83%
21:00 +23°C° 0 mm 2 mps 749 mmHg 86%
22:00 +21°C° 0 mm 3 mps 749 mmHg 88%
23:00 +20°C° 0 mm 3 mps 749 mmHg 91%

21 June, Monday

Time Temperature Precipitation Wind Pressure Humidity
00:00 +19°C° 0 mm 3 mps 748 mmHg 92%
01:00 +19°C° 0 mm 3 mps 748 mmHg 92%
02:00 +19°C° 0 mm 3 mps 748 mmHg 93%
03:00 +18°C° 0 mm 3 mps 748 mmHg 92%
04:00 +18°C° 0 mm 3 mps 748 mmHg 92%
05:00 +18°C° 0 mm 2 mps 748 mmHg 92%
06:00 +19°C° 0 mm 3 mps 748 mmHg 87%
07:00 +21°C° 0 mm 4 mps 748 mmHg 83%
08:00 +22°C° 0 mm 4 mps 748 mmHg 78%
09:00 +25°C° 0 mm 4 mps 748 mmHg 72%
10:00 +26°C° 0 mm 5 mps 748 mmHg 66%
11:00 +27°C° 0 mm 5 mps 748 mmHg 59%
12:00 +28°C° 0 mm 5 mps 748 mmHg 57%
13:00 +28°C° 0 mm 5 mps 747 mmHg 55%
14:00 +29°C° 0 mm 5 mps 747 mmHg 53%
15:00 +29°C° 0 mm 5 mps 747 mmHg 56%
16:00 +29°C° 0 mm 5 mps 747 mmHg 59%
17:00 +28°C° 0 mm 4 mps 747 mmHg 62%
18:00 +27°C° 0.1 mm 4 mps 746 mmHg 68%
19:00 +26°C° 0.1 mm 3 mps 746 mmHg 74%
20:00 +24°C° 0.1 mm 3 mps 746 mmHg 79%
21:00 +22°C° 0 mm 3 mps 746 mmHg 82%
22:00 +22°C° 0 mm 3 mps 746 mmHg 85%
23:00 +21°C° 0 mm 3 mps 746 mmHg 88%

22 June, Tuesday

Time Temperature Precipitation Wind Pressure Humidity
00:00 +20°C° 0 mm 3 mps 745 mmHg 90%
01:00 +20°C° 0 mm 3 mps 745 mmHg 92%
02:00 +19°C° 0 mm 3 mps 745 mmHg 95%
03:00 +19°C° 0 mm 3 mps 745 mmHg 94%
04:00 +19°C° 0 mm 3 mps 745 mmHg 94%
05:00 +20°C° 0 mm 3 mps 745 mmHg 94%
06:00 +21°C° 0 mm 3 mps 745 mmHg 89%
07:00 +22°C° 0 mm 4 mps 745 mmHg 84%
08:00 +25°C° 0 mm 4 mps 745 mmHg 79%
09:00 +26°C° 0.7 mm 4 mps 745 mmHg 76%
10:00 +27°C° 0.7 mm 5 mps 745 mmHg 73%
11:00 +28°C° 0.7 mm 5 mps 745 mmHg 70%
12:00 +28°C° 0.7 mm 5 mps 745 mmHg 68%
13:00 +29°C° 0.7 mm 5 mps 745 mmHg 65%
14:00 +29°C° 0.7 mm 5 mps 745 mmHg 63%
15:00 +29°C° 0.4 mm 4 mps 745 mmHg 65%
16:00 +29°C° 0.4 mm 4 mps 745 mmHg 66%
17:00 +29°C° 0.4 mm 3 mps 745 mmHg 68%
18:00 +28°C° 0.1 mm 3 mps 745 mmHg 72%
19:00 +27°C° 0.1 mm 3 mps 745 mmHg 76%
20:00 +26°C° 0.1 mm 2 mps 745 mmHg 80%
21:00 +25°C° 0 mm 2 mps 745 mmHg 81%
22:00 +24°C° 0 mm 2 mps 745 mmHg 82%
23:00 +23°C° 0 mm 2 mps 745 mmHg 83%
Show more